BEIDOU-3S IGSO-2S

Last updated on Fri Dec 19 2025 00:02:51 GMT+0000 (Coordinated Universal Time)

1 40938U 15053A 25352.67793368 -.00000118 00000+0 00000+0 0 9993 2 40938 49.5013 260.9354 0060486 188.6566 337.9094 1.00268890 37549
UTC large
Height (km)
Speed (km/s)
/
Latitude / Longitude
Inclination (degrees)
Orbital Period (minutes)
Azimuth
Elevation
Range (km)
Doppler Factor

Next 0 passes for location: London (51.5072 / 0.1276)

Sorry there are no passes over London.